Flag for U.S.A. Weather past 2 weeks in San Jose, California, U.S.A.

Now
63 °F

Passing clouds.


Feels Like: 63 °F
Forecast: 63 / 78 °F
Wind: 3 mph from Northwest

Location: San Jose International Airport

Current Time: Jul 22, 2014 at 12:58:08 AM

Latest Report: Jul 21, 2014 at 11:53 PM


Visibility: 10 mi

Pressure: 30.04 "Hg

Humidity: 78%

Dew point: 56 °F

Location of San JoseLocation

Historic Weather in San Jose — Graph

°F

San Jose temperature yesterday

Maximum temperature yesterday: 78 °F (at 12:53 PM)
Minimum temperature yesterday: 63 °F (at 11:53 PM)
Average temperature yesterday: 69 °F

Past Weeks' High & Low Weather Summary

 TemperatureHumidityPressure
High85 °F (Jul 14, 12:53 PM)90% (Jul 7, 2:53 AM)30.09 "Hg (Jul 7, 2:53 AM)
Low57 °F (Jul 9, 5:53 AM)41% (Jul 14, 3:53 PM)29.83 "Hg (Jul 7, 6:53 PM)
Average68 °F69%29.95 "Hg
* Reported Jul 6 11:53 PM — Jul 21 11:53 PM, San Jose, Weather by CustomWeather, © 2014

Note: Actual official high and low records may vary slightly from our data, if they occured in-between our weather recording intervals... More about our weather records

Advertising

San Jose weather history for July 7, 2014

 ConditionsComfort  
Time TempWeatherWind HumidityBarometerVisibility
12:53 AM
Jul 7
60 °FClear.5 mph86%29.93 "Hg10 mi
1:53 AM59 °FClear.5 mph87%29.92 "Hg10 mi
2:53 AM59 °FClear.3 mph90%29.91 "Hg10 mi
3:53 AM59 °FClear.5 mph87%29.91 "Hg10 mi
4:53 AM59 °FPassing clouds.5 mph87%29.91 "Hg10 mi
5:53 AM59 °FPartly cloudy.No wind87%29.90 "Hg10 mi
6:53 AM60 °FScattered clouds.No wind83%29.90 "Hg10 mi
7:53 AM61 °FBroken clouds.3 mph83%29.91 "Hg10 mi
8:53 AM65 °FBroken clouds.3 mph76%29.92 "Hg10 mi
9:53 AM67 °FScattered clouds.No wind66%29.91 "Hg10 mi
10:53 AM69 °FBroken clouds.5 mph66%29.90 "Hg10 mi
11:53 AM75 °FBroken clouds.3 mph52%29.90 "Hg10 mi
12:53 PM76 °FBroken clouds.10 mph54%29.88 "Hg10 mi
1:53 PM78 °FBroken clouds.7 mph48%29.88 "Hg10 mi
2:53 PM81 °FBroken clouds.7 mph44%29.86 "Hg10 mi
3:53 PM76 °FBroken clouds.9 mph54%29.85 "Hg10 mi
4:53 PM78 °FScattered clouds.12 mph50%29.85 "Hg10 mi
5:53 PM77 °FScattered clouds.10 mph52%29.84 "Hg10 mi
6:53 PM76 °FScattered clouds.8 mph52%29.83 "Hg10 mi
7:53 PM74 °FPartly sunny.8 mph53%29.83 "Hg10 mi
8:53 PM71 °FBroken clouds.8 mph63%29.85 "Hg10 mi
9:53 PM67 °FPassing clouds.7 mph73%29.87 "Hg10 mi
10:53 PM63 °FPassing clouds.7 mph78%29.89 "Hg10 mi
11:53 PM62 °FPassing clouds.No wind80%29.88 "Hg10 mi
Weather by CustomWeather, © 2014

See weather overviewHow to use our weather pages